This demonstration page uses our WeatherBlox Daily Observations layout. Learn more.

Left ArrowRight Arrow

Hourly Observations for June 25, 2018

Temp ( °F °C ) Dew Point ( °F °C ) Humidity (%) Winds ( mph kmh ) Pressure ( in mb ) Visibility ( mi km ) Precip ( " mm )
12:53 am 00:53 Clear 60 15.6 55 12.8 84 84 Calm 29.91 1013 10 16 0.00 0.00
1:53 am 01:53 Clear 57 13.9 56 13.3 96 96 E 5 7 29.90 1012 10 16 0.00 0.00
2:53 am 02:53 Clear 58 14.4 56 13.3 93 93 Calm 29.88 1012 10 16 0.00 0.00
3:53 am 03:53 Clear 54 12.2 53 11.7 97 97 Calm 29.88 1012 10 16 0.00 0.00
4:53 am 04:53 Clear 54 12.2 53 11.7 97 97 ENE 5 7 29.87 1011 10 16 0.00 0.00
5:53 am 05:53 Sunny 55 12.8 54 12.2 96 96 Calm 29.85 1011 10 16 0.00 0.00
6:53 am 06:53 Sunny 59 15 56 13.3 90 90 E 5 7 29.83 1010 10 16 0.00 0.00
7:53 am 07:53 Sunny 66 18.9 57 13.9 73 73 Calm 29.81 1009 10 16 0.00 0.00
8:53 am 08:53 Sunny 70 21.1 59 15 68 68 Calm 29.79 1009 10 16 0.00 0.00
9:53 am 09:53 Sunny 75 23.9 59 15 58 58 Calm 29.78 1008 10 16 0.00 0.00
10:53 am 10:53 Sunny 79 26.1 56 13.3 45 45 Calm 29.76 1008 10 16 0.00 0.00
11:53 am 11:53 Sunny 83 28.3 51 10.6 33 33 SSW 9 15 29.73 1007 10 16 0.00 0.00
12:53 pm 12:53 Sunny 85 29.4 50 10 30 30 S 7 11 29.72 1006 10 16 0.00 0.00
1:53 pm 13:53 Sunny 87 30.6 50 10 28 28 SW 7 11 29.70 1006 10 16 0.00 0.00
2:53 pm 14:53 Sunny 88 31.1 51 10.6 28 28 SSW 13 20 29.68 1005 10 16 0.00 0.00
3:53 pm 15:53 Sunny 90 32.2 52 11.1 27 27 SW 16 26 29.67 1005 10 16 0.00 0.00
4:53 pm 16:53 Sunny 89 31.7 52 11.1 28 28 SSW 14 22 29.66 1004 10 16 0.00 0.00
5:53 pm 17:53 Sunny 89 31.7 53 11.7 29 29 SSW 14 22 29.65 1004 10 16 0.00 0.00
6:53 pm 18:53 Sunny 86 30 49 9.4 28 28 SW 9 15 29.63 1004 10 16 0.00 0.00
7:53 pm 19:53 Sunny 82 27.8 54 12.2 38 38 SSE 3 6 29.63 1003 10 16 0.00 0.00
8:53 pm 20:53 Partly Cloudy 78 25.6 59 15 52 52 WNW 12 19 29.64 1004 10 16 0.00 0.00
9:14 pm 21:14 Cloudy with Nearby Thunderstorms 73 23 59 15 61 61 WSW 9 15 29.59 1002 10 16 0.00 0.00
9:29 pm 21:29 Cloudy with Thunderstorms 69 20.6 62 16.7 78 78 S 9 15 29.65 1004 10 16 0.00 0.03
9:44 pm 21:44 Mostly Cloudy with Nearby Thunderstorms 68 20 61 16 78 78 W 12 19 29.65 1004 10 16 0.00 0.00
9:51 pm 21:51 Partly Cloudy 66 19 61 16 83 83 W 9 15 29.71 1006 10 16 0.00 0.03
9:53 pm 21:53 Mostly Cloudy 67 19.4 61 16.1 81 81 W 8 13 29.74 1007 10 16 0.00 0.03
10:53 pm 22:53 Cloudy with Rain 64 17.8 61 16.1 90 90 NNE 10 17 29.71 1006 5 8 0.08 2.03
11:25 pm 23:25 Mostly Cloudy with Light Rain 65 18.3 61 16.1 87 87 S 6 9 29.65 1004 10 16 0.01 0.25
11:53 pm 23:53 Clear 63 17.2 60 15.6 90 90 W 3 6 29.72 1006 10 16 0.01 0.25

Powered by AerisWeather